EN

Hourly Weather Igls

Today, 28 February, Sunday

Time Temperature Precipitation Wind Pressure Humidity
00:00 -2°C° 0 mm 1 mps 693 mmHg 65%
01:00 -2°C° 0 mm 1 mps 693 mmHg 59%
02:00 -2°C° 0 mm 1 mps 693 mmHg 56%
03:00 -1°C° 0 mm 1 mps 692 mmHg 52%
04:00 -1°C° 0 mm 1 mps 692 mmHg 48%
05:00 -1°C° 0 mm 1 mps 692 mmHg 46%
06:00 -1°C° 0 mm 1 mps 692 mmHg 44%
07:00 -1°C° 0 mm 1 mps 692 mmHg 41%
08:00 +2°C° 0 mm 1 mps 692 mmHg 45%
09:00 +4°C° 0 mm 1 mps 693 mmHg 48%
10:00 +6°C° 0 mm 0 mps 693 mmHg 51%
11:00 +7°C° 0 mm 1 mps 693 mmHg 55%
12:00 +8°C° 0 mm 1 mps 693 mmHg 59%
13:00 +9°C° 0 mm 1 mps 693 mmHg 62%
14:00 +9°C° 0 mm 1 mps 692 mmHg 65%
15:00 +8°C° 0 mm 1 mps 692 mmHg 68%
16:00 +8°C° 0 mm 1 mps 692 mmHg 71%
17:00 +6°C° 0 mm 1 mps 692 mmHg 70%
18:00 +5°C° 0 mm 1 mps 692 mmHg 69%
19:00 +3°C° 0 mm 1 mps 692 mmHg 68%
20:00 +2°C° 0 mm 1 mps 692 mmHg 64%
21:00 +2°C° 0 mm 1 mps 692 mmHg 60%
22:00 +2°C° 0 mm 1 mps 692 mmHg 56%
23:00 +2°C° 0 mm 1 mps 692 mmHg 55%

Tomorrow, 1 March, Monday

Time Temperature Precipitation Wind Pressure Humidity
00:00 +2°C° 0 mm 1 mps 692 mmHg 53%
01:00 +2°C° 0 mm 1 mps 692 mmHg 51%
02:00 +2°C° 0 mm 1 mps 692 mmHg 49%
03:00 +2°C° 0 mm 1 mps 692 mmHg 47%
04:00 +2°C° 0 mm 1 mps 691 mmHg 45%
05:00 +2°C° 0 mm 1 mps 692 mmHg 44%
06:00 +2°C° 0 mm 1 mps 692 mmHg 43%
07:00 +2°C° 0 mm 1 mps 692 mmHg 41%
08:00 +4°C° 0 mm 1 mps 692 mmHg 45%
09:00 +6°C° 0 mm 1 mps 692 mmHg 49%
10:00 +9°C° 0 mm 1 mps 693 mmHg 53%
11:00 +10°C° 0 mm 1 mps 693 mmHg 54%
12:00 +10°C° 0 mm 1 mps 693 mmHg 56%
13:00 +11°C° 0 mm 1 mps 693 mmHg 57%
14:00 +11°C° 0 mm 1 mps 692 mmHg 60%
15:00 +10°C° 0 mm 1 mps 692 mmHg 64%
16:00 +10°C° 0 mm 1 mps 692 mmHg 67%
17:00 +8°C° 0 mm 1 mps 692 mmHg 64%
18:00 +6°C° 0 mm 1 mps 692 mmHg 61%
19:00 +3°C° 0 mm 2 mps 692 mmHg 58%
20:00 +3°C° 0 mm 2 mps 692 mmHg 56%
21:00 +3°C° 0 mm 2 mps 692 mmHg 53%
22:00 +3°C° 0 mm 2 mps 693 mmHg 51%
23:00 +3°C° 0 mm 2 mps 693 mmHg 49%

Day after tomorrow, 2 March, Tuesday

Time Temperature Precipitation Wind Pressure Humidity
00:00 +2°C° 0 mm 2 mps 693 mmHg 47%
01:00 +2°C° 0 mm 2 mps 693 mmHg 45%
02:00 +2°C° 0 mm 2 mps 693 mmHg 44%
03:00 +2°C° 0 mm 2 mps 693 mmHg 43%
04:00 +2°C° 0 mm 2 mps 692 mmHg 42%
05:00 +2°C° 0 mm 2 mps 692 mmHg 42%
06:00 +2°C° 0 mm 2 mps 692 mmHg 41%
07:00 +2°C° 0 mm 2 mps 692 mmHg 41%
08:00 +5°C° 0 mm 1 mps 693 mmHg 44%
09:00 +7°C° 0 mm 1 mps 693 mmHg 47%
10:00 +10°C° 0 mm 1 mps 694 mmHg 50%
11:00 +11°C° 0 mm 1 mps 694 mmHg 51%
12:00 +12°C° 0 mm 1 mps 694 mmHg 51%
13:00 +13°C° 0 mm 1 mps 694 mmHg 52%
14:00 +11°C° 0 mm 0 mps 693 mmHg 56%
15:00 +11°C° 0 mm 0 mps 693 mmHg 59%
16:00 +11°C° 0 mm 0 mps 693 mmHg 63%
17:00 +9°C° 0 mm 0 mps 693 mmHg 64%
18:00 +8°C° 0 mm 1 mps 693 mmHg 64%
19:00 +6°C° 0 mm 1 mps 693 mmHg 65%
20:00 +6°C° 0 mm 1 mps 693 mmHg 63%
21:00 +6°C° 0 mm 1 mps 693 mmHg 60%
22:00 +5°C° 0 mm 1 mps 693 mmHg 58%
23:00 +5°C° 0 mm 1 mps 693 mmHg 57%

3 March, Wednesday

Time Temperature Precipitation Wind Pressure Humidity
00:00 +5°C° 0 mm 1 mps 693 mmHg 56%
01:00 +5°C° 0 mm 1 mps 693 mmHg 55%
02:00 +5°C° 0 mm 1 mps 693 mmHg 55%
03:00 +5°C° 0 mm 1 mps 693 mmHg 55%
04:00 +5°C° 0 mm 1 mps 693 mmHg 54%
05:00 +4°C° 0 mm 1 mps 693 mmHg 54%
06:00 +4°C° 0 mm 1 mps 693 mmHg 53%
07:00 +4°C° 0 mm 1 mps 693 mmHg 53%
08:00 +6°C° 0 mm 1 mps 693 mmHg 51%
09:00 +8°C° 0 mm 1 mps 693 mmHg 49%
10:00 +9°C° 0 mm 0 mps 693 mmHg 47%
11:00 +10°C° 0 mm 0 mps 693 mmHg 46%
12:00 +12°C° 0 mm 1 mps 693 mmHg 44%
13:00 +13°C° 0 mm 1 mps 692 mmHg 43%
14:00 +13°C° 0 mm 1 mps 692 mmHg 47%
15:00 +12°C° 0 mm 1 mps 691 mmHg 52%
16:00 +11°C° 0 mm 0 mps 691 mmHg 56%
17:00 +10°C° 0 mm 1 mps 691 mmHg 59%
18:00 +8°C° 0 mm 1 mps 690 mmHg 63%
19:00 +6°C° 0 mm 1 mps 690 mmHg 66%
20:00 +6°C° 0 mm 1 mps 690 mmHg 63%
21:00 +6°C° 0 mm 1 mps 690 mmHg 61%
22:00 +5°C° 0 mm 1 mps 690 mmHg 59%
23:00 +5°C° 0 mm 1 mps 689 mmHg 58%

4 March, Thursday

Time Temperature Precipitation Wind Pressure Humidity
00:00 +5°C° 0 mm 1 mps 689 mmHg 57%
01:00 +5°C° 0 mm 1 mps 688 mmHg 56%
02:00 +4°C° 0 mm 1 mps 688 mmHg 56%
03:00 +4°C° 0 mm 1 mps 688 mmHg 56%
04:00 +4°C° 0 mm 1 mps 687 mmHg 56%
05:00 +4°C° 0 mm 1 mps 687 mmHg 55%
06:00 +4°C° 0 mm 1 mps 687 mmHg 55%
07:00 +4°C° 0 mm 1 mps 687 mmHg 55%
08:00 +6°C° 0 mm 1 mps 687 mmHg 52%
09:00 +7°C° 0 mm 1 mps 687 mmHg 49%
10:00 +8°C° 0 mm 0 mps 687 mmHg 46%
11:00 +10°C° 0 mm 1 mps 687 mmHg 46%
12:00 +11°C° 0 mm 1 mps 686 mmHg 47%
13:00 +11°C° 0 mm 1 mps 686 mmHg 47%
14:00 +11°C° 0.1 mm 1 mps 686 mmHg 56%
15:00 +10°C° 0.1 mm 1 mps 685 mmHg 64%
16:00 +8°C° 0.1 mm 2 mps 685 mmHg 72%
17:00 +8°C° 0.2 mm 1 mps 685 mmHg 80%
18:00 +7°C° 0.2 mm 1 mps 685 mmHg 88%
19:00 +5°C° 0.2 mm 1 mps 685 mmHg 96%
20:00 +5°C° 0.2 mm 1 mps 685 mmHg 95%
21:00 +5°C° 0.2 mm 1 mps 685 mmHg 95%
22:00 +5°C° 0.2 mm 1 mps 685 mmHg 95%
23:00 +4°C° 0.4 mm 1 mps 685 mmHg 95%

5 March, Friday

Time Temperature Precipitation Wind Pressure Humidity
00:00 +4°C° 0.4 mm 1 mps 685 mmHg 95%
01:00 +4°C° 0.4 mm 1 mps 685 mmHg 95%
02:00 +4°C° 0.4 mm 1 mps 684 mmHg 96%
03:00 +4°C° 0.4 mm 1 mps 684 mmHg 96%
04:00 +4°C° 0.4 mm 1 mps 684 mmHg 97%
05:00 +4°C° 0.3 mm 1 mps 684 mmHg 96%
06:00 +4°C° 0.3 mm 1 mps 684 mmHg 96%
07:00 +4°C° 0.3 mm 1 mps 684 mmHg 96%
08:00 +5°C° 0.3 mm 1 mps 684 mmHg 94%
09:00 +5°C° 0.3 mm 1 mps 684 mmHg 91%
10:00 +6°C° 0.3 mm 1 mps 685 mmHg 89%
11:00 +6°C° 0.4 mm 1 mps 685 mmHg 87%
12:00 +5°C° 0.4 mm 2 mps 685 mmHg 86%
13:00 +5°C° 0.4 mm 2 mps 685 mmHg 85%
14:00 +5°C° 0.4 mm 2 mps 684 mmHg 87%
15:00 +4°C° 0.4 mm 2 mps 684 mmHg 90%
16:00 +4°C° 0.4 mm 2 mps 684 mmHg 92%
17:00 +3°C° 0.3 mm 2 mps 685 mmHg 94%
18:00 +2°C° 0.3 mm 2 mps 685 mmHg 95%
19:00 +2°C° 0.3 mm 2 mps 685 mmHg 96%
20:00 +1°C° 0.2 mm 2 mps 686 mmHg 96%
21:00 +2°C° 0.2 mm 1 mps 686 mmHg 95%
22:00 +2°C° 0.2 mm 1 mps 687 mmHg 95%
23:00 +1°C° 0.1 mm 1 mps 687 mmHg 95%
Show more

We Need Your Consent

Meteoprog and our Service Providers may store and access personal data such as cookies, device identifiers or other similar technologies on your device and process such data to personalise content and ads, as well as provide social media features and to analyse the traffic.

  • Store and/or access information on your device

    Cookies, device identifiers or other information can be stored or accessed on your device for the purposes indicated above.

  • Personalised ads and content, ad and content measurement, audience insights, and products development

    Ads and content can be personalised based on a profile. More data can be added to better personalise ads and content. Ad and content performance can be measured. Insights about the audience who saw the ads and content can be derived. Such data can be used to develop or improve user’s experience, systems and software.

By clicking ‘I Agree’ you will allow the use of indicated cookies, device identifiers, web beacons or other similar technologies. Your settings can be changed in the browser on your device.

For certain purposes, legitimate interests may be relied on, rather than consent. You can read more about this in our Privacy and Cookie Policy.